Location: ?????
(42.2640°N, 43.4211°E)
Time: 15:23:54
(UTC+00:00)

Cosmos 1898 Rocket - Pass Details

Date: 07 August 2020
Orbit: 754 x 783 km, 74.0° (Epoch: 19 September)

Event Time Altitude Azimuth Distance (km) Brightness Sun altitude
Exits shadow 00:31:29 25° 240° (WSW) 1,532 4.5 -15.6°
Maximum altitude 00:34:06 42° 296° (WNW) 1,084 4.1 -15.2°
Drops below altitude 10° 00:39:04 10° 7° (N) 2,303 6.6 -14.5°
Sets 00:41:34 0° 14° (NNE) 3,229 7.6 -14.2°
